Zurück zum Katalog

STARLINK-36525

AktivKommunikationVLEO
NORAD 67450·PAYLOAD·🇺🇸 United States

Gestartet Jan 14, 2026 von Cape Canaveral Space Force Station

Loading…

Nächste Überflüge (nächste 24 Stunden)

TLE

AktuellSource: CelesTrak SupGP

Epoche: Sep 14, 2026, 21:07 UTC

1 67450C 26008F   26257.88034722  .00030452  00000+0  11016-2 0  2575
2 67450  43.0029 216.8710 0001087 260.8858 162.8740 15.27603613    13

Verfolge STARLINK-36525 in Echtzeit mit AllMySat

Download on the App Store